Weather History for Mount Sterling, KY

Change the Weather History Date:

Thursday, February 20, 2014

  Actual Average Record
Temperature  
Mean Temperature 56 °F -  
Max Temperature 69 °F 48 °F 69 °F (2014)
Min Temperature 42 °F 26 °F 21 °F (2013)
Degree Days  
Heating Degree Days 10    
Growing Degree Days 6 (Base 50)    
Moisture  
Dew Point 46 °F    
Average Humidity 63    
Maximum Humidity 94    
Minimum Humidity 53    
Precipitation  
Precipitation 0.43 in - - ()
Sea Level Pressure  
Sea Level Pressure 29.84 in    
Wind  
Wind Speed 12 mph (SSW)    
Max Wind Speed 26 mph    
Max Gust Speed 43 mph    
Visibility 10 miles    
Events Rain    
Averages and records for this station are not official NWS values.
T = Trace of Precipitation, MM = Missing Value Source: NWS Daily Summary

Daily Weather History Graph

Daily Weather History Graph

Search for Another Location

Airport:

Trip Planner

Search our weather history database for the weather conditions in past years. The results will help you decide how hot, cold, wet, or windy it might be!

Date:

Astronomy

Feb. 20, 2014 Rise Set
Actual Time 7:19 AM EST 6:20 PM EST
Civil Twilight 6:53 AM EST 6:46 PM EST
Nautical Twilight 6:22 AM EST 7:17 PM EST
Astronomical Twilight 5:51 AM EST 7:48 PM EST
Moon No Moon Rise 10:07 AM EST (2/20)
Length of Visible Light 11h 53m
Length of Day
11h 00m
Waning Gibbous, 71% of the Moon is Illuminated
Feb 20
Waning Gibbous
Feb 22
Last Quarter
Mar 1
New
Mar 8
First Quarter
Mar 16
Full

Hourly Weather History & Observations

Time (EST) Temp. Windchill Dew Point Humidity Pressure Visibility Wind Dir Wind Speed Gust Speed Precip Events Conditions
12:15 AM 44.6 °F 40.7 °F 32.0 °F 61% 30.04 in 10.0 mi ESE 6.9 mph - N/A   Clear
12:35 AM 42.8 °F 38.6 °F 32.0 °F 66% 30.04 in 10.0 mi ESE 6.9 mph - N/A   Clear
12:55 AM 42.8 °F 38.6 °F 32.0 °F 66% 30.04 in 10.0 mi ESE 6.9 mph - N/A   Clear
1:15 AM 42.8 °F 39.3 °F 32.0 °F 66% 30.03 in 10.0 mi ESE 5.8 mph - N/A   Clear
1:35 AM 42.8 °F 39.3 °F 32.0 °F 66% 30.03 in 10.0 mi SE 5.8 mph - N/A   Scattered Clouds
1:55 AM 42.8 °F 38.6 °F 30.2 °F 61% 30.03 in 10.0 mi SE 6.9 mph - N/A   Mostly Cloudy
2:15 AM 42.8 °F 39.3 °F 30.2 °F 61% 30.02 in 10.0 mi SE 5.8 mph - N/A   Scattered Clouds
2:35 AM 42.8 °F 39.3 °F 30.2 °F 61% 30.02 in 10.0 mi SE 5.8 mph - N/A   Clear
2:55 AM 42.8 °F 38.6 °F 30.2 °F 61% 30.00 in 10.0 mi SE 6.9 mph - N/A   Clear
3:15 AM 42.8 °F 38.6 °F 30.2 °F 61% 30.00 in 10.0 mi SE 6.9 mph - N/A   Clear
3:35 AM 42.8 °F 38.6 °F 30.2 °F 61% 29.99 in 10.0 mi SSE 6.9 mph - N/A   Clear
3:55 AM 44.6 °F 39.2 °F 30.2 °F 57% 29.98 in 10.0 mi SSE 10.4 mph - N/A   Clear
4:15 AM 44.6 °F 39.2 °F 30.2 °F 57% 29.96 in 10.0 mi SSE 10.4 mph 17.3 mph N/A   Clear
4:35 AM 44.6 °F 39.2 °F 30.2 °F 57% 29.95 in 10.0 mi SSE 10.4 mph - N/A   Clear
4:55 AM 44.6 °F 39.7 °F 30.2 °F 57% 29.95 in 10.0 mi SSE 9.2 mph - N/A   Scattered Clouds
5:15 AM 44.6 °F 39.7 °F 30.2 °F 57% 29.93 in 10.0 mi SSE 9.2 mph - N/A   Mostly Cloudy
5:35 AM 44.6 °F 39.7 °F 32.0 °F 61% 29.93 in 10.0 mi SSE 9.2 mph - N/A   Scattered Clouds
5:55 AM 44.6 °F 40.7 °F 32.0 °F 61% 29.92 in 10.0 mi SSE 6.9 mph - N/A   Mostly Cloudy
6:15 AM 44.6 °F 40.7 °F 32.0 °F 61% 29.92 in 10.0 mi SSE 6.9 mph - N/A   Mostly Cloudy
6:35 AM 46.4 °F 42.9 °F 32.0 °F 57% 29.92 in 10.0 mi South 6.9 mph - N/A   Overcast
6:55 AM 46.4 °F 42.9 °F 33.8 °F 62% 29.91 in 10.0 mi South 6.9 mph - N/A   Overcast
7:15 AM 48.2 °F - 35.6 °F 62% 29.91 in 10.0 mi South 8.1 mph - N/A   Mostly Cloudy
7:35 AM 50.0 °F - 39.2 °F 66% 29.90 in 10.0 mi South 10.4 mph - N/A   Mostly Cloudy
7:55 AM 50.0 °F - 41.0 °F 71% 29.91 in 10.0 mi South 9.2 mph - N/A   Mostly Cloudy
8:15 AM 51.8 °F - 41.0 °F 67% 29.91 in 10.0 mi SSW 10.4 mph - N/A   Mostly Cloudy
8:35 AM 51.8 °F - 41.0 °F 67% 29.92 in 10.0 mi SSW 10.4 mph - N/A   Overcast
8:55 AM 53.6 °F - 42.8 °F 67% 29.91 in 10.0 mi SSW 9.2 mph - N/A   Overcast
9:15 AM 53.6 °F - 44.6 °F 72% 29.91 in 10.0 mi SSW 10.4 mph - N/A   Overcast
9:35 AM 55.4 °F - 46.4 °F 72% 29.91 in 10.0 mi SSW 12.7 mph 17.3 mph N/A   Scattered Clouds
9:55 AM 59.0 °F - 50.0 °F 72% 29.91 in 10.0 mi SSW 16.1 mph 24.2 mph N/A   Clear
10:15 AM 60.8 °F - 51.8 °F 72% 29.90 in 10.0 mi SSW 19.6 mph 25.3 mph N/A   Scattered Clouds
10:35 AM 60.8 °F - 51.8 °F 72% 29.89 in 10.0 mi SSW 18.4 mph 24.2 mph N/A   Clear
10:55 AM 62.6 °F - 53.6 °F 72% 29.89 in 10.0 mi SW 16.1 mph 19.6 mph N/A   Clear
11:15 AM 64.4 °F - 53.6 °F 68% 29.88 in 10.0 mi SW 18.4 mph 23.0 mph N/A   Scattered Clouds
11:35 AM 64.4 °F - 53.6 °F 68% 29.86 in 10.0 mi SW 15.0 mph 26.5 mph N/A   Clear
11:55 AM 64.4 °F - 53.6 °F 68% 29.86 in 10.0 mi SW 18.4 mph 28.8 mph N/A   Mostly Cloudy
12:15 PM 66.2 °F - 53.6 °F 64% 29.86 in 10.0 mi SW 24.2 mph 32.2 mph N/A   Overcast
12:35 PM 66.2 °F - 53.6 °F 64% 29.85 in 10.0 mi WSW 17.3 mph 32.2 mph N/A   Overcast
12:55 PM 68.0 °F - 53.6 °F 60% 29.84 in 10.0 mi WSW 16.1 mph 27.6 mph N/A   Overcast
1:15 PM 68.0 °F - 53.6 °F 60% 29.83 in 10.0 mi SW 15.0 mph 28.8 mph N/A   Overcast
1:35 PM 68.0 °F - 53.6 °F 60% 29.82 in 10.0 mi WSW 19.6 mph 32.2 mph N/A   Overcast
1:55 PM 68.0 °F - 53.6 °F 60% 29.81 in 10.0 mi WSW 19.6 mph 34.5 mph N/A   Overcast
2:15 PM 69.8 °F - 53.6 °F 56% 29.80 in 10.0 mi SW 20.7 mph 35.7 mph N/A   Mostly Cloudy
2:35 PM 69.8 °F - 53.6 °F 56% 29.79 in 10.0 mi SW 17.3 mph 32.2 mph N/A   Scattered Clouds
2:55 PM 69.8 °F - 53.6 °F 56% 29.78 in 10.0 mi SW 16.1 mph 35.7 mph N/A   Scattered Clouds
3:15 PM 69.8 °F - 51.8 °F 53% 29.78 in 10.0 mi SW 16.1 mph 32.2 mph N/A   Scattered Clouds
3:35 PM 69.8 °F - 51.8 °F 53% 29.77 in 10.0 mi SW 18.4 mph 38.0 mph N/A   Scattered Clouds
3:55 PM 69.8 °F - 51.8 °F 53% 29.76 in 10.0 mi SW 16.1 mph 27.6 mph N/A   Clear
4:15 PM 69.8 °F - 51.8 °F 53% 29.76 in 10.0 mi SW 19.6 mph 28.8 mph N/A   Clear
4:35 PM 69.8 °F - 51.8 °F 53% 29.76 in 10.0 mi SW 16.1 mph 24.2 mph N/A   Clear
4:55 PM 69.8 °F - 51.8 °F 53% 29.74 in 10.0 mi SW 21.9 mph 31.1 mph N/A   Clear
5:15 PM 69.8 °F - 51.8 °F 53% 29.74 in 10.0 mi SW 19.6 mph 31.1 mph N/A   Clear
5:35 PM 69.8 °F - 51.8 °F 53% 29.73 in 10.0 mi SSW 21.9 mph 32.2 mph N/A   Clear
5:55 PM 68.0 °F - 53.6 °F 60% 29.72 in 10.0 mi SSW 17.3 mph 27.6 mph N/A   Scattered Clouds
6:15 PM 68.0 °F - 53.6 °F 60% 29.72 in 10.0 mi SSW 23.0 mph 31.1 mph N/A   Scattered Clouds
6:35 PM 68.0 °F - 55.4 °F 64% 29.71 in 10.0 mi SW 26.5 mph 42.6 mph N/A   Scattered Clouds
6:55 PM 66.2 °F - 55.4 °F 68% 29.73 in 10.0 mi SW 19.6 mph 33.4 mph N/A   Clear
7:15 PM 66.2 °F - 55.4 °F 68% 29.73 in 10.0 mi SW 19.6 mph 28.8 mph N/A   Clear
7:35 PM 66.2 °F - 55.4 °F 68% 29.73 in 10.0 mi SW 17.3 mph 29.9 mph N/A   Scattered Clouds
7:55 PM 66.2 °F - 53.6 °F 64% 29.72 in 10.0 mi SW 19.6 mph 27.6 mph N/A   Clear
8:15 PM 66.2 °F - 53.6 °F 64% 29.71 in 10.0 mi SW 15.0 mph 25.3 mph N/A   Clear
8:35 PM 68.0 °F - 53.6 °F 60% 29.71 in 10.0 mi SW 19.6 mph 26.5 mph N/A   Scattered Clouds
8:55 PM 68.0 °F - 53.6 °F 60% 29.69 in 10.0 mi SW 20.7 mph 34.5 mph N/A   Overcast
9:15 PM 68.0 °F - 53.6 °F 60% 29.67 in 10.0 mi SW 18.4 mph 29.9 mph N/A   Overcast
9:35 PM 68.0 °F - 53.6 °F 60% 29.67 in 10.0 mi SW 23.0 mph 36.8 mph N/A   Overcast
9:55 PM 68.0 °F - 53.6 °F 60% 29.66 in 10.0 mi SW 21.9 mph 35.7 mph N/A   Overcast
10:15 PM 68.0 °F - 53.6 °F 60% 29.65 in 10.0 mi SSW 19.6 mph 32.2 mph N/A   Overcast
10:35 PM 64.4 °F - 53.6 °F 68% 29.65 in 10.0 mi SW 19.6 mph 27.6 mph N/A Rain Rain
10:55 PM 64.4 °F - 55.4 °F 73% 29.65 in 7.0 mi SW 15.0 mph 32.2 mph 0.03 in Rain Heavy Rain
11:15 PM 62.6 °F - 55.4 °F 77% 29.64 in 10.0 mi SW 10.4 mph 21.9 mph 0.03 in Rain Rain
11:35 PM 60.8 °F - 55.4 °F 82% 29.66 in 3.0 mi WNW 20.7 mph 26.5 mph 0.20 in Rain Heavy Rain
11:55 PM 55.4 °F - 53.6 °F 94% 29.65 in 5.0 mi WSW 20.7 mph 29.9 mph 0.40 in Rain Light Rain